Regional Weather Roundup
Issued by NWS

Home | Current Version | Previous Version | Text Only | Print | Product List | Glossary On
Versions: 1 2 3 4 5 6 7 8 9 10 11 12 13 14 15 16 17 18 19 20 21 22 23 24 25 26 27 28 29 30 31 32 33 34 35 36 37 38 39 40 41 42 43 44 45 46 47 48 49 50
000
ASUS43 KDMX 310808
RWRIA

WEATHER ROUNDUP FOR IOWA
NATIONAL WEATHER SERVICE DES MOINES IA
300 AM CDT TUE MAY 31 2016

NOTE: "FAIR" INDICATES FEW OR NO CLOUDS BELOW 12,000 FEET WITH NO
SIGNIFICANT WEATHER AND/OR OBSTRUCTIONS TO VISIBILITY.

* - THESE STATIONS ARE NOT NWS STATIONS...THUS NOT UNDER NWS
QUALITY CONTROL.  THEY ALSO DO NOT REPORT WEATHER SUCH
AS PRECIPITATION OR FOG.

IAZ001>003-012>014-020>022-031>034-043>046-310900-
   NORTHWEST IOWA

CITY           SKY/WX    TMP DP  RH WIND       PRES   REMARKS
CARROLL *      MOCLDY    66  61  82 S8        29.88S
CHEROKEE *     LGT RAIN  66  61  82 SW13      29.86R
DENISON *      MOCLDY    68  63  83 S8        29.86R
LE MARS *      DRIZZLE   63  61  94 CALM      29.88F
ORANGE CITY *  LGT RAIN  63  61  94 CALM      29.87S
SHELDON *      LGT RAIN  61  61 100 E3        29.85F
SIOUX CITY     CLOUDY    64  60  87 N5        29.87F
SPENCER        CLOUDY    64  55  72 S17G26    29.82F
STORM LAKE *   MOCLDY    64  59  82 SE12      29.87S
$$

IAZ055>058-069>071-079>083-090>094-310900-
   SOUTHWEST IOWA

CITY           SKY/WX    TMP DP  RH WIND       PRES   REMARKS
ATLANTIC *     PTCLDY    66  63  88 S10       29.89F
AUDUBON *        N/A     66  63  88 S7        29.90F
CLARINDA *       N/A     64  61  88 MISG      29.93S
COUNCIL BLFS * PTCLDY    66  63  88 SW12G18   29.90R
CRESTON *      CLEAR     64  61  88 S9        29.93F
HARLAN  *      PTCLDY    66  63  88 S10       29.92S
LAMONI         CLOUDY    61  58  90 S5        29.93F
RED OAK *      MOCLDY    66  63  88 S9        29.90S
SHENANDOAH *   CLEAR     66  63  88 S12       29.91S
$$

IAZ047>049-059>061-072>074-084-310900-
   CENTRAL IOWA

CITY           SKY/WX    TMP DP  RH WIND       PRES   REMARKS
AMES           CLOUDY    64  60  87 SE7       29.93S
ANKENY *       CLEAR     66  63  88 CALM      29.92F
BOONE *          N/A     64  61  88 SE13      29.91S
CHARITON *     CLEAR     63  59  88 S7        29.93S
DES MOINES     MOCLDY    69  59  70 SE7       29.92S
GRINNELL*      CLEAR     63  59  88 E6        29.96F
KNOXVILLE *    CLEAR     64  59  82 SE6       29.93F
MARSHALLTOWN   CLOUDY    62  59  90 SE9       29.93F
NEWTON *       CLOUDY    64  63  94 SE10      29.94F
PELLA *        CLEAR     64  59  82 E3        29.96S
PERRY *        CLOUDY    66  63  88 SE8       29.91S
$$

IAZ004>006-015-016-023>025-035-036-310900-
   NORTH CENTRAL IOWA

CITY           SKY/WX    TMP DP  RH WIND       PRES   REMARKS
ALGONA *       DRIZZLE   63  59  88 SE15      29.89S
CLARION *      MOCLDY    63  61  94 SE16G23   29.89F
ESTHERVILLE    LGT RAIN  63  58  83 S18       29.86S
FORT DODGE *   CLOUDY    63  55  77 SE9       29.90F
FOREST CITY *  CLEAR     61  59  94 SE13      29.89F
WEBSTER CITY * PTCLDY    63  61  94 SE13      29.89F
IOWA FALLS *     N/A     64  61  88 SE10      29.92F
$$

IAZ007>011-017>019-026>030-037>042-050>054-066-310900-
   NORTHEAST IOWA

CITY           SKY/WX    TMP DP  RH WIND       PRES   REMARKS
CEDAR RAPIDS   CLEAR     61  59  93 CALM      29.95S
CHARLES CITY * CLOUDY    63  61  94 SE12      29.92S
CLINTON *      PTCLDY    67  62  84 N8        29.96S
DECORAH *      PTCLDY    63  59  88 SE7       29.92S
DUBUQUE        CLOUDY    63  60  90 NE8       29.97F
MONTICELLO *   CLEAR     63  59  88 CALM      29.96S
OELWEIN *      CLOUDY    64  59  82 E8        29.94F
WATERLOO       CLOUDY    62  58  86 SE8       29.92F
$$

IAZ064-065-067-068-078-310900-
   EAST CENTRAL IOWA

CITY           SKY/WX    TMP DP  RH WIND       PRES   REMARKS
DAVENPORT      PTCLDY    67  63  87 W7        29.96S
IOWA CITY      CLEAR     65  59  81 CALM      29.97S
MT. PLEASANT * MOCLDY    66  64  94 CALM      29.96F
MUSCATINE *    CLEAR     68  63  83 CALM      29.96S
QUAD CITIES    CLOUDY    69  63  81 W3        29.94F
$$

IAZ062-063-075>077-085>089-095>099-310900-
   SOUTHEAST IOWA

CITY           SKY/WX    TMP DP  RH WIND       PRES   REMARKS
BURLINGTON     MOCLDY    66  62  87 CALM      29.96S
FAIRFIELD *      N/A    N/A N/A N/A MISG        N/A
FORT MADISON * CLEAR     64  61  88 CALM      29.98R
KEOKUK *       PTCLDY    64  61  88 CALM      29.96S
OSKALOOSA *      N/A     63  59  88 E5        29.96S
OTTUMWA        CLEAR     60  58  92 E5        29.96R
WASHINGTON *   CLEAR     64 N/A N/A CALM      29.98R
$$

ABBREVIATIONS USED IN REMARKS
   TC - TEMPERATURES IN CELSIUS
  WCI - WIND CHILL INDEX
   HX - HEAT INDEX
  VSB - VISIBILITY
$$





USA.gov is the U.S. government's official web portal to all federal, state and local government web resources and services.